Location: El Azufral
(10.3513°N, 67.1528°W)
Time: 08:53:05
(UTC+00:00)

Meteor 1-11 Rocket - Pass Details

Date: 13 June 2024
Orbit: 831 x 914 km, 81.2° (Epoch: 19 July)

Event Time Altitude Azimuth Distance (km) Brightness Sun altitude
Rises 23:26:45 0° 1° (N) 3,526 7.3 -8.9°
Reaches altitude 10° 23:29:15 10° 5° (N) 2,591 6.5 -9.4°
Maximum altitude 23:35:05 60° 84° (E) 1,037 3.9 -10.7°
Drops below altitude 10° 23:40:55 10° 163° (SSE) 2,592 5.8 -12.0°
Enters shadow 23:43:02 - 167° (SSE) 3,389 6.5 -12.5°
